Location: Cheyres
(46.8153°N, 6.7877°E)
Time: 00:21:38
(UTC+00:00)

Cosmos 1328 Rocket - Pass Details

Date: 26 September 2021
Orbit: 601 x 627 km, 82.5° (Epoch: 15 October)

Event Time Altitude Azimuth Distance (km) Brightness Sun altitude
Exits shadow 01:46:51 17° 73° (ENE) 1,561 6.1 -34.9°
Drops below altitude 10° 01:49:00 10° 44° (NE) 1,958 6.9 -34.6°
Sets 01:51:49 0° 25° (NNE) 2,865 7.9 -34.3°
